Theta_e
306 300 296 301 303 302 300 298 296 300 304 304 303 304 308 313 313 312 314 312 311 313 319 324 327 329 330 332 332 332 331 332 331 330 327 326 324 328 328 329 328 327 327 326
300 295 303 304 303 301 300 298 298 301 302 303 302 303 308 310 312 312 314 315 315 313 314 319 324 327 328 329 331 331 332 332 332 331 330 329 329 329 330 330 329 328 327 326
295 299 303 302 300 298 298 297 297 298 300 302 300 298 301 306 310 312 312 313 314 315 314 315 318 323 327 328 330 330 331 332 332 331 331 330 330 330 329 329 329 329 328 327
298 302 300 299 297 299 293 302 300 298 297 291 300 290 298 302 304 307 309 311 312 313 316 316 316 318 323 327 330 331 331 331 332 332 330 328 327 325 328 329 330 330 330 329
294 297 298 296 298 301 297 301 299 299 296 296 296 292 297 302 300 303 308 311 313 314 315 316 316 316 320 326 329 331 330 330 331 332 331 330 328 331 331 330 330 330 331 330
297 299 299 299 301 302 303 298 297 298 295 287 293 293 294 298 300 304 308 311 313 314 315 316 318 318 316 322 328 329 328 328 330 330 331 330 329 330 330 331 330 330 330 330
293 294 297 298 297 302 300 295 286 284 284 284 295 292 295 301 304 305 306 309 312 314 315 314 315 316 316 316 321 325 326 326 329 330 330 331 331 330 329 330 330 329 329 329
284 283 293 297 296 295 297 295 287 281 283 286 293 288 295 304 306 308 308 309 311 312 314 314 316 317 316 316 317 321 323 324 326 328 328 330 332 331 331 331 330 329 329 329
284 285 293 297 299 298 295 290 298 289 283 285 290 295 301 301 301 305 307 308 308 310 312 312 314 315 315 316 315 318 321 323 325 327 327 328 330 330 330 330 331 330 330 329
289 281 290 291 297 299 297 299 288 288 282 281 287 290 292 297 299 302 303 305 307 309 310 311 310 310 312 314 315 315 318 321 324 326 327 327 328 329 329 329 328 329 329 328
291 288 287 293 291 290 292 291 291 292 289 284 283 289 300 299 301 301 304 306 307 308 309 311 313 309 309 309 310 311 313 318 321 323 325 325 326 326 328 328 328 327 328 327
292 287 283 286 292 298 296 293 292 286 285 287 288 289 299 302 303 303 304 305 307 308 310 311 311 308 307 306 307 308 310 314 318 321 322 323 324 324 324 325 326 326 326 326
291 285 280 281 285 288 287 293 294 293 288 284 284 288 301 302 299 302 303 305 306 305 305 305 305 305 306 305 305 306 308 311 316 318 319 319 320 320 321 322 323 323 323 323
293 286 283 279 283 286 283 285 290 289 284 285 287 288 294 299 301 302 303 302 303 304 301 302 302 302 303 302 303 304 305 309 312 314 316 316 318 319 320 320 319 317 313 312
290 283 285 285 286 287 286 287 288 287 288 283 287 288 292 296 294 297 301 301 299 299 300 300 300 302 302 300 300 300 303 306 308 310 312 314 316 317 314 309 307 306 306 306
291 284 286 282 287 287 285 287 288 288 288 287 288 287 295 297 298 298 301 304 302 303 302 300 300 299 298 299 300 300 301 302 305 308 309 310 307 303 302 302 302 302 302 302
288 286 281 279 284 282 277 283 284 285 286 286 283 290 295 295 297 298 299 303 303 305 306 306 301 301 299 298 299 299 300 301 302 305 303 301 300 298 299 298 298 298 299 300
286 282 283 278 279 271 282 288 287 285 287 288 289 293 295 297 299 301 302 304 305 305 305 306 304 302 301 300 298 299 299 299 299 300 297 296 296 296 295 294 294 295 295 295
287 283 278 276 276 279 280 283 282 282 283 289 290 293 295 295 298 299 302 305 307 307 307 306 308 304 302 299 299 298 296 297 297 296 296 294 295 293 293 293 294 293 293 292
285 285 281 275 272 270 281 286 288 287 277 288 289 289 290 293 290 295 303 304 306 308 308 307 307 300 300 298 297 295 295 295 295 295 295 294 294 293 292 293 292 292 291 289
277 278 276 276 275 277 284 287 289 277 280 290 291 291 293 292 297 301 304 304 306 308 306 305 302 299 298 295 294 294 295 294 296 294 292 291 291 291 293 292 292 290 288 288
276 276 275 276 274 271 288 287 281 287 291 291 290 291 291 294 296 298 301 303 304 305 305 302 301 297 296 294 293 294 294 296 293 292 291 289 289 289 290 289 289 288 287 287
277 281 280 281 280 287 290 289 293 293 291 292 292 292 293 293 294 296 298 301 304 305 304 297 296 295 291 292 294 293 295 291 290 289 287 287 287 288 288 288 288 288 287 288
283 285 281 281 284 285 288 290 291 291 289 287 288 290 294 294 295 295 298 299 300 302 302 292 291 291 291 290 290 294 290 290 289 288 287 287 287 287 288 289 289 289 289 289
283 284 282 282 285 284 287 285 281 276 277 281 282 283 285 289 292 294 296 297 299 299 298 292 292 293 292 289 290 290 289 289 289 288 287 287 288 288 287 289 289 290 290 291
267 265 270 277 269 267 269 275 273 273 276 276 278 278 280 283 285 288 291 295 297 297 296 291 292 293 292 289 289 287 288 289 289 287 287 288 288 288 288 287 287 288 289 288
Wind_Speed
10 11 18 30 27 15 10 16 13 11 8 9 16 21 21 16 13 14 17 14 15 16 13 13 15 17 17 17 18 18 17 17 12 11 10 9 9 9 9 10 13 13 12 13
7 19 30 17 16 13 12 12 13 7 6 10 13 17 20 19 20 17 17 17 18 15 15 13 15 17 18 19 20 19 20 18 16 12 12 9 10 11 11 10 12 14 14 14
19 13 17 12 14 19 16 19 12 10 4 9 11 21 25 21 22 21 19 19 19 19 19 17 17 19 19 20 21 21 22 21 19 18 11 10 8 8 10 12 11 13 15 14
15 17 9 13 13 13 19 18 8 7 7 10 11 11 16 15 21 25 24 19 21 21 20 19 17 18 20 21 20 20 20 21 19 20 15 18 13 14 13 12 11 12 16 16
10 11 23 11 26 19 13 11 16 17 15 11 13 11 12 17 20 23 21 20 22 21 21 22 21 19 21 20 19 20 21 20 21 20 20 16 17 12 10 10 13 13 12 15
7 1 5 21 15 18 9 3 7 13 14 16 27 19 15 20 18 17 19 20 21 22 21 22 21 19 19 16 17 18 21 22 21 21 23 22 21 18 12 13 10 11 10 10
23 14 1 2 13 13 16 13 4 8 8 11 16 18 26 7 21 19 21 21 19 19 18 20 21 19 18 17 18 17 21 22 21 21 22 23 22 21 20 17 12 13 10 10
16 13 23 16 9 14 21 20 7 13 7 19 10 12 21 18 25 23 17 18 17 16 14 18 20 17 18 18 19 20 20 21 21 22 22 20 22 13 14 16 12 11 11 10
16 18 6 16 14 11 9 20 24 8 0 5 8 21 23 5 9 15 21 18 21 18 17 19 17 16 17 17 19 20 20 20 20 21 19 19 18 19 15 18 15 11 12 9
7 6 13 10 15 19 18 6 12 9 10 11 9 23 16 15 21 16 14 17 19 17 17 16 14 15 14 16 16 17 19 20 19 19 17 16 17 18 17 15 16 15 13 12
5 4 5 10 16 23 16 16 9 4 14 10 18 16 18 19 14 18 21 22 23 20 17 14 13 12 13 12 14 16 17 18 17 16 16 16 15 16 15 14 14 14 13 12
11 3 9 14 1 6 19 18 21 11 9 6 16 25 3 12 19 18 22 25 25 22 16 13 11 9 11 15 15 15 15 16 16 15 15 15 14 14 14 15 14 13 13 12
16 10 6 4 6 11 12 15 15 13 4 7 12 24 18 18 8 12 16 17 15 8 8 10 10 12 11 11 12 12 13 15 14 14 15 14 13 14 15 14 13 12 11 10
16 6 13 17 9 2 8 18 18 14 10 18 17 25 28 23 18 22 17 12 14 11 10 9 8 9 10 10 12 14 14 13 13 14 14 13 14 15 13 12 11 9 7 8
13 8 10 17 13 9 11 13 12 17 27 19 23 23 29 16 21 24 19 16 12 14 14 12 11 10 11 10 10 9 10 11 12 13 13 13 12 12 11 9 9 8 8 7
12 3 8 8 14 13 13 17 17 17 20 16 18 24 34 26 21 23 22 23 20 23 16 12 12 9 10 11 11 10 12 11 12 14 14 11 11 10 9 9 10 9 8 8
14 7 5 10 11 5 7 21 21 22 22 20 22 26 33 31 25 25 25 24 26 23 21 17 13 13 12 13 14 14 12 10 13 11 10 11 11 10 9 9 8 8 10 9
12 6 4 7 3 11 13 10 15 21 23 20 22 24 31 31 22 20 20 26 26 23 23 22 11 11 12 12 10 8 8 10 12 12 11 10 11 11 10 10 11 10 8 8
6 6 3 6 9 14 18 22 18 17 24 17 21 24 30 33 14 27 32 29 25 19 18 17 16 15 11 13 15 15 12 10 9 11 13 13 13 13 13 12 11 10 9 8
10 11 9 6 6 9 25 14 12 13 19 22 22 27 31 22 11 29 10 16 25 26 23 20 20 9 13 13 11 14 15 15 17 14 14 14 13 13 13 12 12 8 8 8
6 5 15 14 10 11 33 5 7 13 22 23 13 22 26 20 19 24 16 23 22 17 22 22 16 15 17 10 14 17 16 21 19 13 11 11 11 12 11 12 9 10 9 8
11 10 8 6 8 18 16 13 20 19 26 26 19 24 26 26 25 26 24 25 24 24 20 13 13 15 10 13 15 18 21 19 13 13 13 11 10 9 9 12 10 10 10 10
11 14 8 15 13 19 13 9 7 14 22 22 13 20 21 27 29 28 26 22 21 23 18 7 13 13 8 13 17 18 20 13 14 14 12 13 11 10 12 13 12 10 9 10
8 4 10 13 25 30 23 22 20 18 21 23 20 23 23 30 31 28 23 20 18 17 18 9 11 13 14 11 13 16 10 13 15 15 14 13 14 12 11 9 9 9 11 10
5 4 13 22 25 21 21 11 14 23 26 25 21 19 23 26 30 26 24 21 19 17 13 8 14 15 17 12 13 7 15 17 15 14 13 13 11 13 12 9 9 9 7 8
8 8 6 14 15 9 19 19 29 29 26 24 25 30 28 22 26 25 23 20 18 16 13 11 16 14 11 12 14 12 14 16 16 16 13 13 12 12 11 10 7 5 8 10
Wind_Direction
184 205 205 206 211 224 287 221 238 218 191 209 238 247 248 253 246 245 250 250 243 238 236 224 213 213 216 217 215 212 208 208 201 202 203 213 214 221 222 225 225 224 221 218
199 212 218 219 213 220 225 233 225 228 191 228 252 251 260 251 248 242 248 252 249 250 239 220 218 213 211 215 216 213 214 209 205 204 202 210 204 222 224 219 221 220 219 219
203 229 227 213 209 202 221 230 227 247 197 253 271 264 258 248 246 241 238 243 254 247 245 233 216 210 213 215 216 215 212 209 206 207 204 207 218 223 217 220 220 218 216 216
220 230 204 197 213 195 221 211 239 243 232 250 195 277 246 245 230 235 237 226 239 243 240 246 231 218 212 216 218 218 217 213 211 204 204 207 208 213 217 220 220 221 217 219
202 212 213 208 217 203 236 216 221 235 246 271 238 266 262 239 235 236 230 226 234 234 234 235 230 223 219 211 207 210 214 216 212 206 207 209 216 226 224 219 224 222 218 220
248 211 209 225 223 216 163 126 218 235 238 242 243 241 246 233 233 244 239 234 232 231 226 231 235 226 224 215 209 205 207 213 211 208 211 215 219 222 219 221 219 220 222 215
218 209 130 65 208 208 207 199 222 222 223 244 227 231 238 262 230 241 247 247 237 237 226 227 225 222 219 211 210 206 208 214 207 207 209 212 218 220 222 221 217 219 219 220
207 215 210 188 223 211 205 200 203 220 217 234 156 229 243 233 249 248 246 253 256 253 233 230 231 222 221 216 210 213 210 211 208 205 208 211 214 217 219 221 219 220 221 219
198 233 236 204 201 213 182 215 232 283 101 285 217 245 265 215 248 234 244 246 248 247 240 233 232 225 223 221 217 214 213 214 208 206 206 209 211 215 215 218 220 220 222 224
186 233 218 212 205 216 239 175 216 214 202 229 221 243 246 195 216 227 240 252 261 253 244 242 233 231 228 229 231 223 221 215 210 204 204 205 205 211 216 218 219 218 221 219
188 226 120 170 199 207 209 227 220 262 231 240 254 250 246 243 225 229 233 240 246 251 253 248 244 230 226 224 224 223 221 216 212 204 201 201 203 207 213 216 217 216 218 216
196 309 237 218 62 292 231 226 222 258 235 231 253 262 120 225 232 223 223 225 237 242 256 257 256 229 222 226 226 218 218 214 208 201 197 198 198 200 206 212 213 210 213 210
170 222 212 242 236 239 228 225 237 250 281 257 258 262 264 248 270 257 256 255 255 256 252 249 250 242 236 227 219 212 212 213 202 197 193 192 193 195 203 206 207 203 204 204
169 207 214 224 217 40 207 231 224 210 239 253 247 285 284 290 272 268 272 267 267 263 257 257 251 253 243 231 224 204 206 203 191 189 192 191 192 196 198 192 187 181 177 181
183 219 222 253 274 287 275 267 266 246 238 240 259 267 275 285 297 303 283 279 270 270 264 249 242 237 237 226 214 229 206 196 189 188 188 193 183 184 177 171 166 162 168 175
201 235 201 267 260 251 253 268 265 249 251 253 252 263 267 269 272 275 281 283 274 271 243 212 226 260 240 220 217 206 207 185 188 185 188 174 168 163 159 155 157 152 153 155
188 193 173 249 254 283 256 233 241 244 246 242 251 254 275 269 262 255 259 259 269 267 273 270 242 227 227 215 204 208 206 178 183 185 170 160 155 154 153 142 146 153 160 152
177 146 166 266 109 246 247 267 247 241 249 242 246 256 267 268 267 280 254 252 255 257 262 267 250 232 217 214 203 193 187 193 188 179 169 159 156 156 152 153 165 162 154 157
174 152 183 240 239 285 292 251 234 245 262 250 251 257 264 272 289 265 245 244 255 252 251 255 254 237 217 201 198 187 179 183 201 191 176 170 168 162 162 167 162 158 159 159
222 227 219 183 251 258 260 268 223 243 262 249 245 256 265 280 272 260 327 249 248 248 248 245 245 225 216 208 184 188 190 183 198 192 187 176 171 167 168 161 158 150 156 149
151 198 220 229 234 257 257 223 203 220 251 270 232 255 265 269 250 279 292 283 272 256 235 237 233 223 222 181 176 202 192 203 195 183 168 165 164 164 160 149 151 144 148 150
173 179 203 195 211 258 255 204 217 243 261 266 258 261 271 272 268 273 268 264 263 257 245 237 234 236 212 173 180 203 203 197 162 158 161 156 154 152 152 149 143 145 145 152
233 212 210 202 219 248 251 262 247 252 265 273 271 273 272 275 275 270 269 262 263 265 266 218 222 239 207 190 192 201 214 161 153 151 156 156 152 154 154 152 148 151 160 166
244 232 237 257 253 264 280 283 285 291 296 333 334 317 302 279 279 283 283 285 276 270 263 196 205 222 227 198 201 213 165 160 157 157 157 155 153 154 151 145 157 164 176 172
304 305 257 258 263 294 276 334 358 332 324 322 321 304 297 298 289 282 282 276 267 263 258 202 213 223 225 190 199 177 167 161 164 155 154 157 160 156 150 152 168 177 192 178
8 357 291 277 357 321 291 309 318 310 311 315 314 312 305 293 290 297 287 280 272 261 248 227 228 225 215 186 186 169 168 169 164 158 163 163 159 155 149 147 132 127 142 131